Powrót do katalogu

FENGYUN 1C DEB

AktywnySSO
NORAD 30004·DEBRIS·🇨🇳 China

Wystrzelony May 10, 1999 z Taiyuan Satellite Launch Center

Loading…

Następne Przeloty (najbliższe 24 godziny)

TLE

ŚwieżeSource: Space-Track

Epoka: Sep 14, 2026, 19:49 UTC

1 30004U 99025MD  26257.82606912  .00000804  00000-0  41494-3 0  9995
2 30004  99.2230  94.4114 0037248 284.0348  89.7942 14.17758724 12176

Śledź FENGYUN 1C DEB w czasie rzeczywistym z AllMySat

Download on the App Store